Погода в Покровке

Погода в Покровке : погода сейчас, прогноз погоды и архив. Всё, что Вы хотите узнать о погоде в Покровке!

Поиск расширенной информации на нашем сайте:

Полезная информация: Марс, юпитер, венера, все это космос

Другие новости

Новости СМИ2

Главная страница сайта

Новости сайта

03.07.2017

Напоминаем, что на нашем специализированном сайте Метеоцентр.Азия вы можете получить высокодетализированные автоматические прогнозы погоды по пунктам России, СНГ и мира в авиационном формате (включающие направление и скорость ветра, видимость, явления погоды, количество и форму облачности, нижнюю и верхнюю границу облачности).

Рекомендуем: заказать музыкантов

Погода в Покровке - сегодня

Время (UTC), дата Ветер
(°,м/с) 
Видим.   Явления Облачность Т
(°С)
Тd
(°С)
f(%) Тe
(°С)
Pmin
(гПа)
dP
(гПа)
Po
(мм)
O2
(г/м3)
Тmin Tmax R s Состояние
почвы
21 19.04.18 080 (В) 0200 м  туман  10/0 верхняя 
[Ci fib]
+0.8 +0.3 96 +1  1018.4  0.9  760  305  +0.5        влажная 
12 20.04.18 200 (Ю) 5-13{18}  20000 м    ясно 
+12 +4.7 61 +11  1010.7  755  291           
15 20.04.18 180 (Ю) 6-15{18}  20000 м    ясно 
+10.2 +4.6 68 +9  1008.8  -2  753  292           
18 20.04.18 170 (Ю) 6-12{15}  20000 м    ясно 
+7 +4.2 82 +5  1007.7  -1.1  753  295           
21 20.04.18 170 (Ю) 6-11{13}  10 км    10/0 верхняя 
[Ci fib]
+6.5 +4.2 85 +4  1008.3  0.6  753  296  +6.4        сухая 
12 21.04.18 010 (С) 10 км  {ливн. осадки}  10/3 600 м средняя 
[Sc diur, vesp|As trans]
+9.3 +1.1 56 +9  1020.9  2.9  762  297           
15 21.04.18 360 (С) 10 км    10/0 средняя, верхняя 
[Ac trans|Ci fib]
+7.1 +1.6 68 +7  1022.5  1.5  764  300           
18 21.04.18 010 (С) 10 км    10/0 средняя 
[As op]
+5.5 +0 68 +5  1024.1  1.6  765  302           
03 22.04.18 010 (С) 5{10}  20000 м    8/0 верхняя 
[Ci fib]
+14.7 -7.9 20 +14  1026.6  -1.1  767  294           
06 22.04.18 020 (С) 4{11}  10 км    10/0 верхняя 
[Cs]
+15.8 -10.5 15 +16  1025.4  -1.1  766  293           
12 22.04.18 тихо ()   20000 м    8/0 верхняя 
[Cs]
+6.7 -6.6 38 +7  1026.7  1.8  767  302           
15 22.04.18 290 (З) 20000 м    8/0 верхняя 
[Cs]
+1.5 -6.3 56 +2  1027.6  0.7  767  308           
18 22.04.18 тихо ()   20000 м    6/0 верхняя 
[Ci fib]
-0.6 -5.3 70 -1  1027.5  -0.2  767  310           
00 23.04.18 320 (СЗ) 10 км    10/0 верхняя 
[Cs]
+8.5 -4.3 40 +10  1028.1  0.1  768  301           
03 23.04.18 210 (ЮЗ) 10 км    10/0 верхняя 
[Cs]
+16.6 -9.1 16 +17  1025.8  -2.2  766  292           
06 23.04.18 190 (Ю) 10 км    10/0 верхняя 
[Cs]
+17.2 -11.2 13 +17  1022.9  -2.8  764  291           
12 23.04.18 180 (Ю) 10 км    10/0 средняя, верхняя 
[Ac trans|Ci fib]
+9.4 -8.2 28 +8  1022.6  764  298           
15 23.04.18 170 (Ю) 10 км    10/0 верхняя 
[Ci fib]
+7.5 -7.9 33 +7  1022  -0.6  763  300           
18 23.04.18 180 (Ю) 10 км    10/0 верхняя 
[Ci fib]
+5.7 -7.1 39 +5  1021  -1  762  302           
00 24.04.18 тихо ()   10 км    10/0 верхняя 
[Ci fib]
+10.3 -5.5 32 +10  1019.4  -0.6  761  296           
03 24.04.18 020 (С) 10 км    10/0 средняя, верхняя 
[Ac trans|Ci fib]
+18.2 -10.4 13 +19  1016.7  -2.5  759  288           
06 24.04.18 020 (С) 20000 м    10/0 средняя, верхняя 
[Ac trans|Ci fib]
+21.1 -10.7 11 +21  1013.7  -3  757  284           
12 24.04.18 190 (Ю) 20000 м    10/0 верхняя 
[Ci fib]
+10.2 -7 29 +10  1014.9  1.8  758  295           
15 24.04.18 170 (Ю) 20000 м    ясно 
+6.6 -6.1 40 +6  1014.6  -0.4  758  299           
18 24.04.18 230 (ЮЗ) 20000 м    ясно 
+1.1 -5 64 +2  1014  -0.6  757  304           
Время (UTC), дата Ветер
(°,м/с) 
Видим.   Явления Облачность Т
(°С)
Тd
(°С)
f(%) Тe
(°С)
Pmin
(гПа)
dP
(гПа)
Po
(мм)
O2
(г/м3)
Тmin Tmax R s Состояние
почвы

Для получения пояснительной информации подведите курсор к названию столбца.

ПОГОДА в Покровке - архив

Всё, что Вы хотите узнать о погоде в Покровке - удобно и подробно!

Выберите нужную дату (начиная с 1 января 2015* года) и нажмите кнопку "Найти".
Будут отображены архивные сводки погоды по пункту Покровка, начиная с указанной даты.


Отображать данные в формате CSV (для использования в таблицах Excel)


Внимание! Наш архив погоды предназначен исключительно для личного некоммерческого использования в познавательных целях. Если Вам необходимы официальные справки о состоянии погоды (для производственных, юридических, коммерческих и т.п. целей), обращайтесь в органы Росгидромета.

*Примечание: данная дата относится к архиву по метеостанциям СССР (Россия, СНГ, Балтия).
Архив по метеостанциям Зарубежной Европы и Азии (кроме Китая) хранится 10 дней, по другим регионам земного шара (Китай, Африка, Америка, Австралия, Океания) - 1 день.

Покровка - район местоположения метеостанции


Название, широта, долгота, высота метеостанции:
Покровка 43.9°ш. 131.7°д. 61 м над ур. моря [Российская Федерация]

Дополнительная информация

В oтличие oт бoльшинства пoгoдных сайтoв мы публикуем пoдрoбную метеoинфoрмацию в детальнoм прoфессиoнальнoм фoрмате.

Характеристики температуры и влажнoсти вoздуха измеряются на высoте 2 м в тени вдали oт зданий и деревьев.
Скoрoсть ветра измеряется на высoте 10 м (на урoвне рoста челoвека скoрoсть ветра ниже в 1.5-2 раза). Если метеoстанция нахoдится в гoрoде или в лесу, тo скoрoсть ветра занижена на 2-4 м/с пo сравнению с oткрытым местoм. Скoрoсть ветра над акватoриями крупных рек и oзёр, а также на вершинах хoлмoв на 2-5 м/с выше, чем в oбычных услoвиях.
Атмoсфернoе давление в разных тoчках местнoсти мoжет значительнo oтличаться oт давления на метеoстанции, в зависимoсти oт услoвий рельефа (при пoдъёме на 10 м давление пoнижается примернo на 1 мм рт.ст.).